SES-5 (EGNOS/PRN 136)

Last updated on Wed Sep 09 2026 00:03:30 GMT+0000 (Coordinated Universal Time)

1 38652U 12036A 26251.30355255 .00000013 00000+0 00000+0 0 9992 2 38652 0.0524 339.9604 0001970 197.2270 284.4440 1.00271900 45292
UTC large
Height (km)
Speed (km/s)
/
Latitude / Longitude
Inclination (degrees)
Orbital Period (minutes)
Azimuth
Elevation
Range (km)
Doppler Factor

Next 0 passes for location: London (51.5072 / 0.1276)

No passes found over London.
SES-5 (EGNOS/PRN 136)